星链-32179 (STARLINK-32179)

导读

STARLINK-32179是美国太空探索技术公司(SpaceX)星链星座的成员,于2024年8月28日由美国发射入轨。作为星链低轨卫星互联网项目的组成部分,它运行在近地轨道,承担全球宽带互联网接入任务,重点为偏远、基础设施匮乏地区提供低时延、高速的网络连接服务,助力星链实现全球覆盖目标,持续完善太空星座网络布局。

Basic Information
目录编号:
60734
目录名称:
STARLINK-32179
国际标识:
2024-152Q
轨道中心:
EARTH
卫星名称:
星链-32179 (STARLINK-32179)
卫星全名:
星链-32179 (STARLINK-32179)
卫星状态:
在轨 (已飞行745 天)
发射日期:
2024-08-28 UTC
国别 :
美国 (US)
星等 :
--
This satellite is enrolled in the Space Conjunction Data Service (SCDS) and the current flight risk assessment level is: High Risk
Orbit Information
数据来源 国际轨道数据 AOE轨道数据
星历时间 2026-09-11T16:25:16+0800
19小时前
查看轨道信息
2026-09-10T22:00:00+0800
1天前
查看轨道信息
半长轴 6840.875km 6840.918km
偏心率 0.0001385 0.0001637
轨道倾角 53.159° 53.157°
近地点辐角 99.115° 71.493°
升交点赤经 124.124° 127.715°
平近点角 261.001° 6.438°
近地点 461.79km 461.661km
远地点 463.686km 463.901km
周期 93.848分钟 93.849分钟
每日圈数 15.343886 15.343741
Detailed Information
卫星平台:
Starlink v2.0 mini
运营商:
太空探索技术公司
运营商所在国:
美国
制造商(研发单位):
太空探索技术公司
制造商所在国:
美国
使用方式:
暂无
Satellite Introduction
星链(Starlink)计划是由太空探索技术公司(SpaceX)提出的一个巨型低轨卫星互联网星座项目,计划在2019年至2024年间在太空搭建由约1.2万颗卫星组成的“星链”网络,其中1584颗将部署在地球上空550千米处的近地轨道,并从2020年开始工作。该卫星仍在工作。
2D Orbit Map
3D Orbit Map
Orbit Altitude Analysis Chart
Orbit Inclination Analysis Chart
Orbit Comprehensive Analysis Chart
View Comprehensive Chart
Conjunction Data List
Event ID Objects TCA Miss Dist (km) Collision Risk Probability Collision Risk Index (CRI) Action
CDM_260914-102306-073406-490721
2026-09-14T
10:23:27+0000
0.203 km
中距离
6.24978E-4 高风险 0.91
CDM_260912-231403-279106-073423
SEEDS (32791)
2026-09-12T
23:14:34+0000
1.164 km
极远距离
1.54565E-5 中风险 0.59
CDM_260913-094706-073406-962021
2026-09-13T
09:47:12+0000
1.699 km
极远距离
3.827292E-6 低风险 0.47
CDM_260912-162904-453106-073423
2026-09-12T
16:29:30+0000
1.861 km
极远距离
3.475039E-6 低风险 0.46
CDM_260912-232306-073406-956221
2026-09-12T
23:23:45+0000
2.427 km
极远距离
1.845312E-6 低风险 0.4
CDM_260912-094206-073406-263422
2026-09-12T
09:42:09+0000
2.456 km
极远距离
1.753574E-6 低风险 0.4
CDM_260914-101806-073406-824521
2026-09-14T
10:18:41+0000
1.582 km
极远距离
1.692068E-6 低风险 0.4
CDM_260912-072505-233606-073422
2026-09-12T
07:25:12+0000
2.371 km
极远距离
9.689155E-7 极低风险 0.35
CDM_260912-081205-233606-073422
2026-09-12T
08:12:07+0000
2.914 km
极远距离
7.174302E-7 极低风险 0.32
Miss Distance Evolution Trend with All Objects
Collision Probability Evolution Trend with All Objects